Location: Las Vegas
(36.1750°N, 115.1360°W)
Time: 18:55:09
(UTC-08:00)

Amateur Radio Satellites - All Passes

Search period start: 28 February 2015 18:25
Search period end: 01 March 2015 18:25
Location: Las Vegas, 36.1750°N, 115.1360°W

Satellite Date Start Highest point End Downlink Frequencies (MHz)
Time Altitude Azimuth
O/OREOS (USA 219) 28 Feb 18:34:46 18:38:40 27° 62° (ENE) 18:42:35 437.305
BEESAT 2 28 Feb 18:40:56 18:43:20 15° 314° (NW) 18:45:38 435.950
AIST 1 28 Feb 18:52:13 18:56:10 32° 269° (W) 19:00:02
COMPASS 1 28 Feb 18:52:50 18:54:27 12° 68° (ENE) 18:56:17 437.405
AAUSAT CUBESAT 2 28 Feb 18:53:08 18:53:42 10° 67° (ENE) 18:54:32 437.432
DOVE 4 28 Feb 18:53:38 18:57:02 19° 69° (ENE) 19:00:32 437.250
PHONESAT 2.4 28 Feb 19:01:48 19:05:27 83° 337° (NNW) 19:09:06 2401.200-2431.200
CUBESAT XI-V 28 Feb 19:08:26 19:12:25 27° 289° (WNW) 19:16:17 437.345
PRISM 28 Feb 19:13:21 19:16:27 19° 291° (WNW) 19:19:26 437.425
CANX-2 28 Feb 19:14:08 19:17:59 36° 73° (ENE) 19:21:52 2200.000
VERMONT LUNAR 28 Feb 19:14:16 19:17:40 47° 350° (N) 19:21:04 437.305
SEEDS 28 Feb 19:14:49 19:18:20 27° 72° (ENE) 19:21:56 437.485
CINEMA 3 28 Feb 19:18:37 19:21:32 17° 69° (ENE) 19:24:34 145.822/145.860
BRITE-PL 28 Feb 19:27:25 19:33:08 85° 78° (ENE) 19:38:42 437.365/2234.400
CUTE 1.7 + AOD 2 28 Feb 19:32:47 19:36:53 55° 76° (ENE) 19:41:02 437.475
GOMX 1 28 Feb 19:43:46 19:49:14 84° 78° (ENE) 19:54:31 467.674
CUBEBUG 2 28 Feb 19:53:34 19:56:51 21° 70° (ENE) 20:00:13 437.445
GONETS M04 28 Feb 19:54:45 19:58:30 14° 80° (E) 20:02:56
HO-68 28 Feb 19:58:33 20:05:41 72° 257° (WSW) 20:12:50 435.675
STRAND 1 28 Feb 19:59:25 20:02:51 18° 294° (WNW) 20:06:04 437.568
Oscar 11 28 Feb 20:01:30 20:05:20 32° 72° (ENE) 20:09:12 145.826/435.025
DELFI C3 28 Feb 20:10:45 20:14:17 31° 73° (ENE) 20:17:53 145.870
O/OREOS (USA 219) 28 Feb 20:14:12 20:18:00 25° 257° (WSW) 20:21:41 437.305
AISAT 28 Feb 20:19:19 20:19:19 10° 65° (ENE) 20:19:37 437.250
DX 1 28 Feb 20:22:05 20:25:48 28° 71° (ENE) 20:29:35 434.975-435.025
AAUSAT CUBESAT 2 28 Feb 20:24:51 20:28:56 57° 260° (W) 20:33:01 437.432
COMPASS 1 28 Feb 20:25:48 20:29:48 47° 261° (W) 20:33:50 437.405
VELOX 1 28 Feb 20:27:59 20:29:49 13° 66° (ENE) 20:31:55 145.980
DOVE 4 28 Feb 20:29:27 20:34:31 48° 261° (W) 20:39:22 437.250
PCSat 28 Feb 20:31:59 20:37:23 85° 119° (ESE) 20:42:51 145.827
PHONESAT 2.4 28 Feb 20:40:42 20:44:10 40° 357° (N) 20:47:38 2401.200-2431.200
FUNcube-1 28 Feb 20:41:19 20:45:31 45° 74° (ENE) 20:49:40 145.935
ZACube-1 28 Feb 20:41:44 20:45:58 46° 74° (ENE) 20:50:08 437.345
SEEDS 28 Feb 20:51:02 20:54:12 20° 266° (W) 20:57:15 437.485
CANX-2 28 Feb 20:51:28 20:54:06 16° 268° (W) 20:56:34 2200.000
VERMONT LUNAR 28 Feb 20:52:37 20:55:57 41° 6° (N) 20:59:17 437.305
UKube-1 28 Feb 20:53:46 20:58:03 62° 75° (ENE) 21:02:22 .
CINEMA 3 28 Feb 20:53:46 20:58:28 46° 261° (W) 21:02:59 145.822/145.860
UWE-3 28 Feb 20:55:45 21:00:16 86° 77° (ENE) 21:04:40 435.000/436.395/437.385
HUMSAT D 28 Feb 21:02:10 21:06:05 39° 74° (ENE) 21:10:01 437.325/437.525
BRITE-PL 28 Feb 21:10:35 21:12:18 11° 273° (W) 21:13:34 437.365/2234.400
TIGRISAT 28 Feb 21:17:46 21:19:57 14° 92° (E) 21:22:22 435.000
50 SAT 28 Feb 21:21:25 21:25:14 45° 75° (ENE) 21:29:04 437.505
GOMX 1 28 Feb 21:27:13 21:27:59 10° 273° (W) 21:28:19 467.674
CUBEBUG 2 28 Feb 21:29:16 21:33:24 32° 263° (W) 21:37:25 437.445
ANTELSAT 28 Feb 21:29:21 21:32:30 20° 94° (E) 21:35:48 437.575/2403.000
QB50P1 28 Feb 21:37:29 21:39:16 13° 91° (E) 21:41:17 145.935-145.965
Oscar 11 28 Feb 21:38:35 21:41:37 18° 267° (W) 21:44:32 145.826/435.025
QB50P2 28 Feb 21:40:13 21:42:24 14° 91° (E) 21:44:47 145.880/145.840
GONETS M04 28 Feb 21:45:35 21:54:17 87° 97° (E) 22:03:01
DELFI C3 28 Feb 21:46:55 21:49:36 17° 267° (W) 21:52:08 145.870
AISAT 28 Feb 21:50:55 21:55:25 72° 258° (WSW) 21:59:55 437.250
DUCHIFAT 1 28 Feb 21:56:22 21:59:34 21° 94° (E) 22:02:51 145.980
BUGSAT 1 28 Feb 21:58:20 22:00:53 16° 92° (E) 22:03:34 437.445
DX 1 28 Feb 21:58:34 22:02:04 22° 266° (W) 22:05:28 434.975-435.025
RS-15 28 Feb 22:00:31 22:10:04 38° 108° (ESE) 22:19:54 29.354- 29.394
VELOX 1 28 Feb 22:01:36 22:05:59 55° 260° (W) 22:10:25 145.980
CUBEBUG 1 28 Feb 22:01:53 22:06:13 59° 75° (ENE) 22:10:38 437.445
ESTCUBE 1 28 Feb 22:09:05 22:13:36 80° 75° (ENE) 22:18:09 437.505/2401.250
POLYITAN 1 28 Feb 22:13:34 22:17:27 35° 97° (E) 22:21:21 437.675
POPSAT HIP 1 28 Feb 22:15:10 22:19:04 36° 98° (E) 22:22:59 437.405
PCSat 28 Feb 22:18:42 22:21:37 14° 315° (NW) 22:24:18 145.827
PHONESAT 2.4 28 Feb 22:19:24 22:22:59 56° 14° (NNE) 22:26:32 2401.200-2431.200
FUNcube-1 28 Feb 22:19:50 22:22:09 13° 269° (W) 22:24:11 145.935
ZACube-1 28 Feb 22:20:25 22:22:38 13° 269° (W) 22:24:34 437.345
UNISAT 6 28 Feb 22:26:34 22:30:52 82° 283° (WNW) 22:35:12 437.425
VERMONT LUNAR 28 Feb 22:30:34 22:34:03 80° 203° (SSW) 22:37:31 437.305
NANOSAT C BR1 28 Feb 22:38:57 22:43:11 73° 103° (ESE) 22:47:22 145.865
HUMSAT D 28 Feb 22:39:44 22:42:06 14° 269° (W) 22:44:15 437.325/437.525
SPROUT 28 Feb 22:42:36 22:46:37 39° 73° (ENE) 22:50:41 437.525
TIGRISAT 28 Feb 22:52:56 22:56:58 41° 286° (WNW) 23:01:00 435.000
TISAT 1 28 Feb 22:53:47 22:57:53 48° 74° (ENE) 23:02:03 437.305
DANDE 28 Feb 22:57:23 23:03:28 30° 95° (E) 23:08:34 436.750
50 SAT 28 Feb 22:59:22 23:00:34 11° 270° (W) 23:01:31 437.505
ANTELSAT 28 Feb 23:05:38 23:09:22 29° 288° (WNW) 23:13:04 437.575/2403.000
QB50P1 28 Feb 23:11:25 23:15:28 44° 286° (WNW) 23:19:27 145.935-145.965
SWISSCUBE 28 Feb 23:13:04 23:15:21 14° 66° (ENE) 23:17:53 437.505
QB50P2 28 Feb 23:14:35 23:18:33 39° 287° (WNW) 23:22:29 145.880/145.840
BEESAT 28 Feb 23:21:37 23:24:20 16° 67° (ENE) 23:27:15 436.000
DUCHIFAT 1 28 Feb 23:31:51 23:35:26 26° 289° (WNW) 23:38:54 145.980
BUGSAT 1 28 Feb 23:32:45 23:36:32 33° 288° (WNW) 23:40:13 437.445
CUSAT 1 28 Feb 23:38:26 23:45:24 80° 98° (E) 23:50:41 437.405
CUBEBUG 1 28 Feb 23:42:03 23:43:04 10° 271° (W) 23:43:46 437.445
ITUPSAT 1 28 Feb 23:46:16 23:50:15 28° 70° (ENE) 23:54:20 437.325
GONETS M04 28 Feb 23:47:01 23:52:30 17° 297° (WNW) 23:57:27
POLYITAN 1 28 Feb 23:50:25 23:53:09 17° 291° (WNW) 23:55:44 437.675
POPSAT HIP 1 28 Feb 23:52:02 23:54:43 16° 292° (WNW) 23:57:14 437.405
Oscar 19 28 Feb 23:57:10 23:59:23 13° 90° (E) 00:01:54 437.125/150
PHONESAT 2.4 28 Feb 23:58:00 00:01:24 39° 209° (SSW) 00:04:47 2401.200-2431.200
VERMONT LUNAR 01 Mar 00:09:30 00:11:39 15° 216° (SW) 00:13:42 437.305
RS-15 01 Mar 00:11:27 00:22:07 55° 308° (NW) 00:32:52 29.354- 29.394
SPROUT 01 Mar 00:20:16 00:22:56 15° 268° (W) 00:25:26 437.525
SO-50 01 Mar 00:21:41 00:24:19 16° 109° (ESE) 00:27:12 436.795
TISAT 1 01 Mar 00:32:14 00:34:03 12° 270° (W) 00:35:37 437.305
DANDE 01 Mar 00:39:59 00:46:48 40° 282° (WNW) 00:52:05 436.750
SWISSCUBE 01 Mar 00:48:06 00:52:47 57° 260° (W) 00:57:31 437.505
Gurwin Techsat 1B 01 Mar 00:52:28 00:53:17 10° 88° (E) 00:54:32 435.225
BEESAT 01 Mar 00:57:12 01:01:49 49° 261° (W) 01:06:28 436.000
BEESAT 3 01 Mar 01:01:32 01:02:56 12° 44° (NE) 01:04:30 437.485
BEESAT 2 01 Mar 01:23:53 01:26:32 17° 47° (NE) 01:29:16 435.950
ITUPSAT 1 01 Mar 01:24:03 01:28:07 27° 265° (W) 01:32:07 437.325
CUSAT 1 01 Mar 01:25:46 01:28:27 12° 288° (WNW) 01:30:31 437.405
ITAMSAT 1 01 Mar 01:28:24 01:33:10 36° 97° (E) 01:37:57 435.822/435.867
Oscar 19 01 Mar 01:34:11 01:39:14 62° 286° (WNW) 01:44:17 437.125/150
KKS-1 01 Mar 01:39:38 01:44:08 88° 77° (ENE) 01:48:39 437.445
JUGNU 01 Mar 01:48:46 01:50:21 11° 168° (SSE) 01:52:03 437.505
STARS 01 Mar 01:50:30 01:54:56 74° 76° (ENE) 01:59:22 437.465
YUBILEINY 01 Mar 01:51:37 01:58:33 26° 68° (ENE) 02:05:47 435.215
SO-50 01 Mar 02:00:02 02:04:28 48° 304° (NW) 02:09:04 436.795
HORYU 2 01 Mar 02:01:58 02:03:36 12° 90° (E) 02:05:29 437.375
Gurwin Techsat 1B 01 Mar 02:28:39 02:33:59 78° 285° (WNW) 02:39:17 435.225
RS-15 01 Mar 02:30:52 02:37:56 18° 338° (NNW) 02:44:45 29.354- 29.394
AO-7 01 Mar 02:32:17 02:37:57 21° 92° (E) 02:44:00 29.400- 29.500
BEESAT 3 01 Mar 02:37:27 02:41:34 70° 243° (WSW) 02:45:36 437.485
MOZHAYETS 4 01 Mar 02:39:22 02:42:05 16° 68° (ENE) 02:45:01
AIST 2 01 Mar 02:47:50 02:51:57 45° 56° (ENE) 02:55:59 435.215
M-CUBED/EXP-1 PRIME 01 Mar 02:58:53 03:02:08 62° 72° (ENE) 03:05:28 437.505
BEESAT 2 01 Mar 03:01:01 03:04:58 43° 245° (WSW) 03:08:51 435.950
AUBIESAT-1 01 Mar 03:02:28 03:05:42 60° 70° (ENE) 03:09:01 437.475
ITAMSAT 1 01 Mar 03:08:17 03:12:31 25° 292° (WNW) 03:16:36 435.822/435.867
SRMSAT 01 Mar 03:34:42 03:36:47 12° 169° (S) 03:38:59 437.500
JUGNU 01 Mar 03:35:09 03:38:36 16° 177° (S) 03:42:06 437.505
HORYU 2 01 Mar 03:36:19 03:40:38 52° 286° (WNW) 03:44:57 437.375
YUBILEINY 01 Mar 03:47:23 03:56:05 62° 268° (W) 04:04:40 435.215
JAS-2 01 Mar 03:55:41 04:03:06 65° 101° (E) 04:10:55 435.910
MOZHAYETS 4 01 Mar 04:14:41 04:19:01 42° 262° (W) 04:23:22
AO-7 01 Mar 04:23:17 04:31:33 73° 290° (WNW) 04:39:46 29.400- 29.500
PRISM 01 Mar 04:26:24 04:28:57 17° 68° (ENE) 04:31:40 437.425
AIST 2 01 Mar 04:27:51 04:30:12 14° 250° (WSW) 04:32:21 435.215
CUBESAT XI-V 01 Mar 04:32:32 04:35:51 20° 69° (ENE) 04:39:21 437.345
Cubesat XI-IV 01 Mar 04:43:11 04:45:27 13° 89° (E) 04:48:04 437.490
RS-15 01 Mar 04:51:04 04:56:45 15° 14° (NNE) 05:02:51 29.354- 29.394
CUTE-I 01 Mar 04:51:58 04:55:07 16° 91° (E) 04:58:31 437.470
SRMSAT 01 Mar 05:21:41 05:25:13 16° 179° (S) 05:28:45 437.500
PCSat 01 Mar 05:22:47 05:27:50 38° 56° (ENE) 05:32:53 145.827
JUGNU 01 Mar 05:23:49 05:26:53 14° 187° (S) 05:29:55 437.505
STRAND 1 01 Mar 05:32:10 05:37:10 56° 74° (ENE) 05:42:14 437.568
JAS-2 01 Mar 05:41:48 05:47:42 25° 294° (WNW) 05:53:35 435.910
AIST 1 01 Mar 05:43:56 05:45:24 12° 87° (E) 05:47:08
PRISM 01 Mar 06:00:26 06:04:13 34° 262° (W) 06:08:01 437.425
CUBESAT XI-V 01 Mar 06:08:47 06:13:06 36° 263° (W) 06:17:25 437.345
AO-7 01 Mar 06:18:52 06:23:09 15° 307° (NW) 06:26:55 29.400- 29.500
Cubesat XI-IV 01 Mar 06:20:48 06:26:08 67° 286° (WNW) 06:31:26 437.490
CUTE-I 01 Mar 06:30:22 06:35:37 54° 287° (WNW) 06:40:48 437.470
RS-15 01 Mar 07:03:17 07:13:43 40° 46° (NE) 07:24:45 29.354- 29.394
PCSat 01 Mar 07:06:38 07:11:05 26° 252° (WSW) 07:15:23 145.827
SRMSAT 01 Mar 07:10:44 07:13:39 14° 188° (S) 07:16:29 437.500
STRAND 1 01 Mar 07:13:50 07:16:48 15° 269° (W) 07:19:31 437.568
AIST 1 01 Mar 07:18:29 07:22:40 46° 280° (W) 07:26:54
CUTE 1.7 + AOD 2 01 Mar 07:22:57 07:24:21 12° 90° (E) 07:26:01 437.475
HO-68 01 Mar 07:30:02 07:35:41 26° 94° (E) 07:41:33 435.675
BRITE-PL 01 Mar 07:36:35 07:40:34 30° 95° (E) 07:44:21 437.365/2234.400
ISS 01 Mar 07:49:26 07:51:49 20° 131° (SE) 07:54:15 145.825
GOMX 1 01 Mar 07:49:51 07:53:31 26° 95° (E) 07:57:07 467.674
GONETS M04 01 Mar 07:59:29 08:07:25 38° 74° (ENE) 08:15:30
AAUSAT CUBESAT 2 01 Mar 08:11:09 08:14:39 26° 95° (E) 08:18:14 437.432
COMPASS 1 01 Mar 08:12:15 08:16:00 31° 96° (E) 08:19:47 437.405
TIGRISAT 01 Mar 08:16:40 08:16:52 10° 66° (ENE) 08:17:21 435.000
ANTELSAT 01 Mar 08:27:10 08:29:27 14° 68° (ENE) 08:31:56 437.575/2403.000
DOVE 4 01 Mar 08:31:54 08:36:06 56° 100° (E) 08:40:11 437.250
SEEDS 01 Mar 08:36:53 08:41:07 80° 102° (ESE) 08:45:21 437.485
CANX-2 01 Mar 08:37:33 08:41:48 75° 284° (WNW) 08:46:03 2200.000
O/OREOS (USA 219) 01 Mar 08:43:47 08:48:09 50° 107° (ESE) 08:52:37 437.305
UKube-1 01 Mar 08:46:06 08:47:56 13° 91° (E) 08:50:00 .
DUCHIFAT 1 01 Mar 08:47:59 08:49:46 13° 67° (ENE) 08:51:46 145.980
UWE-3 01 Mar 08:49:29 08:52:25 19° 93° (E) 08:55:30 435.000/436.395/437.385
CINEMA 3 01 Mar 08:51:41 08:55:44 48° 99° (E) 08:59:44 145.822/145.860
SO-50 01 Mar 08:56:14 08:57:12 11° 39° (NE) 08:58:25 436.795
CUTE 1.7 + AOD 2 01 Mar 08:56:31 09:00:38 49° 285° (WNW) 09:04:44 437.475
POLYITAN 1 01 Mar 09:04:51 09:08:01 21° 70° (ENE) 09:11:17 437.675
POPSAT HIP 1 01 Mar 09:06:09 09:09:20 21° 70° (ENE) 09:12:38 437.405
RS-15 01 Mar 09:15:29 09:26:47 61° 247° (WSW) 09:38:27 29.354- 29.394
BRITE-PL 01 Mar 09:15:32 09:18:56 20° 292° (WNW) 09:22:04 437.365/2234.400
HO-68 01 Mar 09:16:48 09:23:47 54° 290° (WNW) 09:30:42 435.675
CUBEBUG 2 01 Mar 09:22:46 09:26:52 61° 100° (E) 09:31:00 437.445
UNISAT 6 01 Mar 09:22:55 09:27:18 63° 76° (ENE) 09:31:38 437.425
ISS 01 Mar 09:25:08 09:28:06 33° 325° (NW) 09:31:04 145.825
Oscar 11 01 Mar 09:27:00 09:31:20 83° 283° (WNW) 09:35:39 145.826/435.025
DELFI C3 01 Mar 09:27:50 09:31:57 81° 103° (ESE) 09:36:02 145.870
GOMX 1 01 Mar 09:28:12 09:31:34 21° 291° (WNW) 09:34:44 467.674
NANOSAT C BR1 01 Mar 09:29:06 09:33:03 38° 73° (ENE) 09:37:03 145.865
AISAT 01 Mar 09:45:11 09:48:54 26° 96° (E) 09:52:38 437.250
AAUSAT CUBESAT 2 01 Mar 09:46:57 09:50:13 22° 289° (WNW) 09:53:22 437.432
DX 1 01 Mar 09:48:32 09:52:55 77° 101° (ESE) 09:57:15 434.975-435.025
COMPASS 1 01 Mar 09:48:34 09:51:32 18° 290° (WNW) 09:54:23 437.405
TIGRISAT 01 Mar 09:48:45 09:53:11 66° 258° (WSW) 09:57:32 435.000
VELOX 1 01 Mar 09:55:14 09:59:15 33° 97° (E) 10:03:16 145.980
CUBEBUG 1 01 Mar 09:55:23 09:57:29 14° 91° (E) 09:59:48 437.445
GONETS M04 01 Mar 09:56:16 10:04:20 42° 271° (W) 10:12:18
QB50P1 01 Mar 10:01:09 10:05:27 86° 258° (WSW) 10:09:45 145.935-145.965
ANTELSAT 01 Mar 10:01:42 10:05:58 45° 261° (W) 10:10:09 437.575/2403.000
QB50P2 01 Mar 10:04:27 10:08:45 77° 258° (WSW) 10:13:03 145.880/145.840
ESTCUBE 1 01 Mar 10:05:27 10:08:49 21° 93° (E) 10:12:18 437.505/2401.250
FUNcube-1 01 Mar 10:08:37 10:12:41 55° 285° (WNW) 10:16:45 145.935
ZACube-1 01 Mar 10:09:18 10:13:22 53° 285° (WNW) 10:17:25 437.345
DOVE 4 01 Mar 10:12:28 10:13:25 10° 294° (WNW) 10:14:07 437.250
BUGSAT 1 01 Mar 10:19:31 10:23:47 71° 259° (WSW) 10:28:04 437.445
UKube-1 01 Mar 10:20:14 10:24:25 47° 287° (WNW) 10:28:34 .
DUCHIFAT 1 01 Mar 10:21:05 10:25:15 50° 261° (W) 10:29:25 145.980
CUSAT 1 01 Mar 10:22:10 10:24:17 22° 76° (ENE) 10:26:29 437.405
HUMSAT D 01 Mar 10:24:30 10:28:36 71° 284° (WNW) 10:32:41 437.325/437.525
O/OREOS (USA 219) 01 Mar 10:25:17 10:27:58 15° 304° (NW) 10:30:28 437.305
UWE-3 01 Mar 10:25:27 10:29:02 28° 288° (WNW) 10:32:34 435.000/436.395/437.385
CINEMA 3 01 Mar 10:30:54 10:32:35 12° 293° (WNW) 10:34:03 145.822/145.860
SO-50 01 Mar 10:33:46 10:38:43 72° 59° (ENE) 10:43:37 436.795
50 SAT 01 Mar 10:37:21 10:41:18 70° 284° (WNW) 10:45:13 437.505
POLYITAN 1 01 Mar 10:40:01 10:43:48 29° 264° (W) 10:47:32 437.675
POPSAT HIP 1 01 Mar 10:41:20 10:45:06 29° 264° (W) 10:48:49 437.405
NANOSAT C BR1 01 Mar 11:06:29 11:09:07 15° 268° (W) 11:11:35 145.865
Oscar 19 01 Mar 11:11:31 11:14:28 16° 66° (ENE) 11:17:38 437.125/150
AISAT 01 Mar 11:21:48 11:25:27 24° 290° (WNW) 11:28:57 437.250
DANDE 01 Mar 11:26:27 11:28:51 30° 265° (W) 11:31:12 436.750
CUBEBUG 1 01 Mar 11:29:56 11:34:10 45° 286° (WNW) 11:38:20 437.445
VELOX 1 01 Mar 11:32:22 11:35:38 20° 291° (WNW) 11:38:45 145.980
ESTCUBE 1 01 Mar 11:41:43 11:45:47 32° 288° (WNW) 11:49:47 437.505/2401.250
SPROUT 01 Mar 12:07:42 12:12:00 71° 283° (WNW) 12:16:15 437.525
Gurwin Techsat 1B 01 Mar 12:10:08 12:12:52 15° 65° (ENE) 12:15:50 435.225
TISAT 1 01 Mar 12:16:51 12:21:02 60° 285° (WNW) 12:25:10 437.305
SO-50 01 Mar 12:16:56 12:18:46 12° 252° (WSW) 12:20:17 436.795
ITAMSAT 1 01 Mar 12:43:43 12:48:34 42° 72° (ENE) 12:53:31 435.822/435.867
Oscar 19 01 Mar 12:48:22 12:53:25 56° 260° (W) 12:58:28 437.125/150
SWISSCUBE 01 Mar 12:51:14 12:55:50 45° 99° (E) 13:00:26 437.505
BEESAT 01 Mar 13:00:04 13:04:45 51° 99° (E) 13:09:25 436.000
ITUPSAT 1 01 Mar 13:26:28 13:31:18 84° 283° (WNW) 13:36:08 437.325
AO-7 01 Mar 13:28:46 13:35:01 25° 59° (ENE) 13:41:33 29.400- 29.500
KKS-1 01 Mar 13:34:27 13:37:43 21° 94° (E) 13:41:06 437.445
STARS 01 Mar 13:44:24 13:47:07 17° 92° (E) 13:50:00 437.465
Gurwin Techsat 1B 01 Mar 13:47:05 13:52:21 65° 259° (WSW) 13:57:39 435.225
JAS-2 01 Mar 14:08:12 14:11:31 17° 62° (ENE) 14:15:17 435.910
ISS 01 Mar 14:19:22 14:20:54 13° 24° (NNE) 14:22:31 145.825
ITAMSAT 1 01 Mar 14:24:24 14:28:18 20° 267° (W) 14:32:03 435.822/435.867
SWISSCUBE 01 Mar 14:30:10 14:33:23 17° 293° (WNW) 14:36:25 437.505
HORYU 2 01 Mar 14:31:49 14:36:15 80° 258° (WSW) 14:40:41 437.375
BEESAT 01 Mar 14:39:21 14:42:13 15° 294° (WNW) 14:44:53 436.000
YUBILEINY 01 Mar 14:49:23 14:56:40 32° 86° (E) 15:04:14 435.215
KKS-1 01 Mar 15:10:31 15:14:26 30° 289° (WNW) 15:18:17 437.445
AO-7 01 Mar 15:18:54 15:27:13 69° 256° (WSW) 15:35:32 29.400- 29.500
STARS 01 Mar 15:19:43 15:23:47 37° 288° (WNW) 15:27:47 437.465
JAS-2 01 Mar 15:50:47 15:56:02 58° 260° (W) 16:01:52 435.910
ISS 01 Mar 15:54:32 15:57:47 86° 41° (NE) 16:01:02 145.825
Cubesat XI-IV 01 Mar 16:02:18 16:05:46 18° 66° (ENE) 16:09:28 437.490
CUTE-I 01 Mar 16:11:07 16:15:04 22° 67° (ENE) 16:19:11 437.470
MOZHAYETS 4 01 Mar 16:12:14 16:16:47 54° 99° (E) 16:21:20
M-CUBED/EXP-1 PRIME 01 Mar 16:16:32 16:20:48 86° 107° (ESE) 16:25:25 437.505
AUBIESAT-1 01 Mar 16:19:34 16:23:52 83° 107° (ESE) 16:28:28 437.475
BEESAT 3 01 Mar 16:28:43 16:32:31 40° 115° (ESE) 16:36:25 437.485
AIST 2 01 Mar 16:44:33 16:47:27 19° 111° (ESE) 16:50:31 435.215
YUBILEINY 01 Mar 16:44:49 16:53:13 49° 283° (WNW) 17:01:38 435.215
PHONESAT 2.4 01 Mar 16:47:17 16:49:47 18° 145° (SE) 16:52:21 2401.200-2431.200
VERMONT LUNAR 01 Mar 16:51:13 16:54:28 38° 151° (SSE) 16:57:46 437.305
BEESAT 2 01 Mar 16:52:35 16:56:39 67° 118° (ESE) 17:00:47 435.950
AIST 1 01 Mar 17:28:37 17:32:32 31° 77° (ENE) 17:36:28
Cubesat XI-IV 01 Mar 17:40:17 17:45:30 52° 260° (W) 17:50:46 437.490
PRISM 01 Mar 17:45:32 17:49:28 38° 98° (E) 17:53:25 437.425
STRAND 1 01 Mar 17:46:08 17:50:09 23° 94° (E) 17:54:17 437.568
CUTE-I 01 Mar 17:49:48 17:54:53 43° 262° (W) 17:59:59 437.470
MOZHAYETS 4 01 Mar 17:51:12 17:53:37 14° 293° (WNW) 17:55:49
HO-68 01 Mar 17:58:18 18:01:54 15° 58° (ENE) 18:05:53 435.675
CUBESAT XI-V 01 Mar 18:07:48 18:12:32 69° 101° (E) 18:17:12 437.345
BEESAT 3 01 Mar 18:07:59 18:10:50 17° 312° (NW) 18:13:36 437.485
